NOAA 16 DEB, 41163

Orbit data source: Space-Track

NOAA 16 DEB, 41163 is space debris in SSO originally from a launch on Thu, 21 Sep 2000 UTC launched from the Air Force Western Test Range (AFWTR). Debris objects in space refer to the collection of defunct objects orbiting the Earth. Examples of debris include non-operational satellites, rocket bodies, and fragments generated from explosions, collisions, or faulty payload assembly.

Loading next visibility...
Identifier
41163, 2000-055CW
Orbit
SSO
Country
Flag of USUS
Related business
Manufacturer
Unknown
Mission
Spacecraft
Bus & Motor
Unknown
Mass
Unknown
Launch date (UTC)
2000-09-21 (26 years ago)
Launch vehicle
Unknown
Launch site
Air Force Western Test Range (AFWTR)
Object type
Payload
Rocket body
Debris
Shape & HBR
Unknown shape, 0.1 m
Radar Cross Section
Small (<0.1 m²)

Expand to show TLE details & history
Last TLE update: 1 day ago

TLE from 1 day ago
0 NOAA 16 DEB
1 41163U 00055CW  26171.16908862  .00035108  00000-0  33813-2 0  9999
2 41163  99.0086 132.6106 0019763 268.9347  90.9604 14.92702171553660
Epoch: 2026-06-20T04:03Z
TLE epoch observation values (Epoch: 2026-06-20T04:03:29.256Z)
Latitude
-0.00005°
Longitude
163.35113°
Altitude
592.775 km
Speed
7.563 km/s
True Right ascension
08h 50m 26s
True Declination
0° 00' 00"
Sunlit
Object was in daylight at epoch
Visualization orbit readout
Latitude
Unknown
Longitude
Unknown
Altitude
Unknown
Speed
Unknown
Apparent Right ascension
Unknown
Apparent Declination
Unknown
Sunlit
N/A
Visualization observer readout
Local Sidereal Time
00:27:09
Azimuth
Unknown
Elevation
Unknown
Doppler factor
Unknown
Orbital elements
Apogee altitude
600.356 km
Perigee altitude
572.827 km
Semi-major axis
6,964.728 km
Eccentricity
0.00198
Inclination
99.0086°
RAAN
132.6106°
Arg. of periapsis
268.9347°
True anomaly
91.18683°
Mean anomaly
90.9604°
Eccentric anomaly
91.07361°
Mean motion
3.73411 °/min
Orbital period
96.41 mins
BSTAR
0.0033813
Loading maneuver chart data...
Computing Atmospheric mass density...
Loading historical data...
Loading historical data...
Loading historical data...
Loading historical data...
Loading historical data...
Loading historical data...
Loading historical data...

Documentation

Showing up to 5 results
|